Regional Weather Roundup
Issued by NWS

Home | Current Version | Previous Version | Text Only | Print | Product List | Glossary Off
Versions: 1 2 3 4 5 6 7 8 9 10 11 12 13 14 15 16 17 18 19 20 21 22 23 24 25 26 27 28 29 30 31 32 33 34 35 36 37 38 39 40 41 42 43 44 45 46 47 48 49 50

000
ASUS43 KLSX 191907
RWRMO

WEATHER SUMMARY FOR MISSOURI
NATIONAL WEATHER SERVICE SPRINGFIELD MO
200 PM CDT FRI SEP 19 2014

NOTE: "FAIR" INDICATES FEW OR NO CLOUDS BELOW 12,000 FEET WITH NO
       SIGNIFICANT WEATHER AND/OR OBSTRUCTIONS TO VISIBILITY.
       CURRENT SKY AND/OR WEATHER CONDITIONS ARE NOT AVAILABLE FOR
       CHILLICOTHE AND FARMINGTON.

MOZ001>031-035>038-043-044-053-054-192000-
...NORTHERN AND WESTERN MISSOURI...

CITY           SKY/WX    TMP DP  RH WIND       PRES   REMARKS
KANSAS CTY INT CLOUDY    70  66  87 S12       30.00F
KANSAS C DTWN  CLOUDY    74  66  76 S8        30.00F
LEE`S SUMMIT   CLOUDY    73  66  78 S6        30.02F
ST JOSEPH      CLOUDY    73  66  78 S13       29.97F
CHILLICOTHE      N/A     75  64  68 SE8G17    30.02F
KIRKSVILLE     SUNNY     75  60  59 S14       30.03F

$$
MOZ066>068-077>081-088>096-101>105-192000-
...SOUTHWEST MISSOURI...

CITY           SKY/WX    TMP DP  RH WIND       PRES   REMARKS
SPRINGFIELD    CLOUDY    77  64  64 S8        30.04F
JOPLIN         PTSUNNY   79  69  71 S8        30.02F

$$
MOZ032>034-039>042-045>050-055>058-069>072-192000-
...CENTRAL MISSOURI...

CITY           SKY/WX    TMP DP  RH WIND       PRES   REMARKS
COLUMBIA       MOSUNNY   75  60  59 S9        30.05F
JEFFERSON CITY PTSUNNY   78  59  51 S9        30.04F
ROLLA          MOSUNNY   74  60  61 SE7       30.04F
SEDALIA        CLOUDY    76  64  66 SE8       30.03F
WHITEMAN AFB   CLOUDY    76  66  71 S7        30.02F
OSAGE BEACH    MOSUNNY   77  63  61 SE6       30.04F

$$
MOZ051-052-059>065-192000-
...EAST CENTRAL MISSOURI...

CITY           SKY/WX    TMP DP  RH WIND       PRES   REMARKS
ST LOUIS INTL  MOSUNNY   77  57  50 SE12G17   30.06F
SPIRIT OF STL  MOSUNNY   76  57  51 E7        30.04F
ST CHARLES     SUNNY     76  55  48 SE12      30.05F

$$
MOZ072>076-082>087-097>100-106>115-192000-
...SOUTH CENTRAL AND SOUTHEAST MISSOURI...

CITY           SKY/WX    TMP DP  RH WIND       PRES   REMARKS
CAPE GIRARDEAU SUNNY     79  59  50 E7        30.05F
FARMINGTON     MOSUNNY   77  61  57 S6        30.08F
POPLAR BLUFF   SUNNY     80  58  46 E7        30.03F
WEST PLAINS    MOSUNNY   76  60  57 SE7       30.07F

$$


USA.gov is the U.S. government's official web portal to all federal, state and local government web resources and services.